SDM6646 ZYHB-UHWW

Flight info

Callsign SDM6646
Flight time 1h 12m
Altitude 33100
Route N0460F331 KETOV B451 SANAR
Aircraft A319/M-VGDW/C

Departure

Time 2026-05-09 09:13
Airport Harbin Taiping International Airport (ZYHB)

Arrival

Time 2026-05-09 10:26
Airport Vladivostok International Airport (UHWW)
Time Latitude Longitude Altitude Speed Heading
2026-05-09 08:55 45.61838 126.23618 507 ft 0 kts 40°
2026-05-09 09:03 45.61829 126.23607 507 ft 2 kts 33°
2026-05-09 09:03 45.61816 126.23595 507 ft 2 kts 37°
2026-05-09 09:03 45.61805 126.23582 507 ft 2 kts 36°
2026-05-09 09:03 45.61792 126.23570 507 ft 2 kts 36°
2026-05-09 09:04 45.61786 126.23563 507 ft 0 kts 45°
2026-05-09 09:04 45.61784 126.23558 507 ft 0 kts 102°
2026-05-09 09:04 45.61785 126.23553 507 ft 1 kts 137°
2026-05-09 09:04 45.61789 126.23548 507 ft 0 kts 128°
2026-05-09 09:06 45.61783 126.23559 507 ft 3 kts 128°
2026-05-09 09:06 45.61779 126.23566 507 ft 3 kts 128°
2026-05-09 09:06 45.61758 126.23605 507 ft 6 kts 128°
2026-05-09 09:07 45.61727 126.23660 507 ft 8 kts 128°
2026-05-09 09:07 45.61688 126.23729 507 ft 9 kts 126°
2026-05-09 09:07 45.61663 126.23827 507 ft 11 kts 108°
2026-05-09 09:07 45.61677 126.23933 507 ft 12 kts 46°
2026-05-09 09:08 45.61747 126.24010 507 ft 13 kts 36°
2026-05-09 09:08 45.61822 126.24088 507 ft 13 kts 35°
2026-05-09 09:08 45.61900 126.24174 507 ft 14 kts 38°
2026-05-09 09:08 45.61980 126.24271 507 ft 16 kts 41°
2026-05-09 09:09 45.62071 126.24382 507 ft 17 kts 39°
2026-05-09 09:09 45.62167 126.24491 507 ft 17 kts 38°
2026-05-09 09:09 45.62261 126.24602 507 ft 17 kts 40°
2026-05-09 09:09 45.62358 126.24718 507 ft 18 kts 38°
2026-05-09 09:10 45.62459 126.24829 507 ft 18 kts 38°
2026-05-09 09:10 45.62587 126.24982 507 ft 27 kts 39°
2026-05-09 09:10 45.62734 126.25147 507 ft 26 kts 38°
2026-05-09 09:10 45.62877 126.25311 507 ft 26 kts 40°
2026-05-09 09:11 45.63007 126.25482 507 ft 25 kts 41°
2026-05-09 09:11 45.63141 126.25644 507 ft 24 kts 40°
2026-05-09 09:11 45.63271 126.25800 507 ft 24 kts 37°
2026-05-09 09:11 45.63366 126.25907 507 ft 14 kts 47°
2026-05-09 09:12 45.63365 126.26038 507 ft 14 kts 125°
2026-05-09 09:12 45.63291 126.26116 507 ft 13 kts 204°
2026-05-09 09:12 45.63241 126.26070 507 ft 0 kts 220°
2026-05-09 09:13 45.63034 126.25832 507 ft 77 kts 221°
2026-05-09 09:13 45.62445 126.25111 508 ft 142 kts 223°
2026-05-09 09:13 45.61622 126.24013 762 ft 171 kts 226°
2026-05-09 09:13 45.60697 126.22901 1311 ft 183 kts 221°
2026-05-09 09:14 45.59695 126.21703 2020 ft 191 kts 223°
2026-05-09 09:14 45.58697 126.20512 2836 ft 193 kts 221°
2026-05-09 09:14 45.57613 126.19235 3258 ft 215 kts 221°
2026-05-09 09:14 45.56410 126.17814 3774 ft 234 kts 221°
2026-05-09 09:15 45.55133 126.16296 4318 ft 252 kts 221°
2026-05-09 09:15 45.53759 126.14645 5075 ft 261 kts 221°
2026-05-09 09:15 45.52401 126.12982 5964 ft 263 kts 225°
2026-05-09 09:15 45.51370 126.10867 6858 ft 264 kts 248°
2026-05-09 09:16 45.50982 126.08330 7748 ft 267 kts 268°
2026-05-09 09:16 45.52281 126.03459 9456 ft 279 kts 311°
2026-05-09 09:16 45.53865 126.01844 10282 ft 287 kts 334°
2026-05-09 09:17 45.55840 126.01221 10826 ft 306 kts 359°
2026-05-09 09:17 45.57962 126.01908 11253 ft 327 kts 25°
2026-05-09 09:17 45.59752 126.04019 11643 ft 347 kts 53°
2026-05-09 09:17 45.60716 126.07201 12176 ft 359 kts 77°
2026-05-09 09:18 45.61105 126.10740 12975 ft 362 kts 82°
2026-05-09 09:18 45.61416 126.14292 13740 ft 365 kts 81°
2026-05-09 09:18 45.61761 126.17876 14495 ft 368 kts 81°
2026-05-09 09:18 45.62130 126.21476 15236 ft 370 kts 82°
2026-05-09 09:19 45.62022 126.25128 15915 ft 375 kts 102°
2026-05-09 09:19 45.60996 126.28520 16641 ft 379 kts 123°
2026-05-09 09:19 45.59300 126.31390 17359 ft 381 kts 131°
2026-05-09 09:19 45.57480 126.34164 17974 ft 385 kts 131°
2026-05-09 09:20 45.55635 126.36962 18598 ft 388 kts 131°
2026-05-09 09:20 45.53806 126.39754 19217 ft 391 kts 131°
2026-05-09 09:20 45.51948 126.42609 19833 ft 394 kts 131°
2026-05-09 09:20 45.50098 126.45461 20420 ft 397 kts 131°
2026-05-09 09:21 45.48219 126.48360 20981 ft 401 kts 131°
2026-05-09 09:21 45.46334 126.51273 21501 ft 405 kts 131°
2026-05-09 09:21 45.44418 126.54232 22045 ft 408 kts 131°
2026-05-09 09:21 45.42485 126.57215 22584 ft 411 kts 131°
2026-05-09 09:22 45.40556 126.60191 23102 ft 413 kts 130°
2026-05-09 09:22 45.38623 126.63170 23594 ft 416 kts 130°
2026-05-09 09:22 45.36643 126.66219 24088 ft 419 kts 131°
2026-05-09 09:22 45.34684 126.69244 24558 ft 422 kts 131°
2026-05-09 09:23 45.32669 126.72349 25031 ft 425 kts 131°
2026-05-09 09:23 45.30689 126.75397 25481 ft 428 kts 131°
2026-05-09 09:23 45.28647 126.78534 25916 ft 430 kts 131°
2026-05-09 09:23 45.26639 126.81610 26335 ft 432 kts 131°
2026-05-09 09:24 45.24565 126.84782 26748 ft 435 kts 130°
2026-05-09 09:24 45.22521 126.87905 27142 ft 437 kts 130°
2026-05-09 09:24 45.20453 126.91064 27529 ft 439 kts 130°
2026-05-09 09:24 45.18371 126.94237 27898 ft 442 kts 130°
2026-05-09 09:25 45.16291 126.97405 28259 ft 444 kts 130°
2026-05-09 09:25 45.14166 127.00639 28634 ft 446 kts 130°
2026-05-09 09:25 45.12085 127.03802 29109 ft 445 kts 130°
2026-05-09 09:25 45.09963 127.07019 29634 ft 443 kts 130°
2026-05-09 09:26 45.07882 127.10171 30121 ft 442 kts 130°
2026-05-09 09:26 45.05790 127.13335 30602 ft 441 kts 130°
2026-05-09 09:26 45.03698 127.16496 31065 ft 439 kts 130°
2026-05-09 09:26 45.01654 127.19611 31441 ft 439 kts 129°
2026-05-09 09:27 44.99589 127.22819 31706 ft 441 kts 129°
2026-05-09 09:27 44.97545 127.26009 31937 ft 444 kts 129°
2026-05-09 09:27 44.95457 127.29260 32180 ft 447 kts 129°
2026-05-09 09:27 44.93365 127.32516 32431 ft 449 kts 129°
2026-05-09 09:28 44.91291 127.35733 32669 ft 451 kts 129°
2026-05-09 09:28 44.89164 127.39027 32876 ft 454 kts 130°
2026-05-09 09:28 44.84896 127.45578 32971 ft 456 kts 130°
2026-05-09 09:29 44.80613 127.52148 32993 ft 457 kts 130°
2026-05-09 09:29 44.76323 127.58733 32994 ft 457 kts 129°
2026-05-09 09:30 44.72066 127.65262 33004 ft 457 kts 130°
2026-05-09 09:30 44.67787 127.71838 33001 ft 457 kts 130°
2026-05-09 09:31 44.63497 127.78406 33016 ft 458 kts 130°
2026-05-09 09:32 44.57038 127.88251 33024 ft 458 kts 130°
2026-05-09 09:32 44.52731 127.94792 33027 ft 458 kts 130°
2026-05-09 09:33 44.48414 128.01334 33044 ft 458 kts 130°
2026-05-09 09:33 44.44099 128.07851 33057 ft 459 kts 130°
2026-05-09 09:34 44.39749 128.14410 33063 ft 459 kts 130°
2026-05-09 09:34 44.35426 128.20915 33068 ft 459 kts 130°
2026-05-09 09:36 44.21125 128.42331 33057 ft 427 kts 130°
2026-05-09 09:36 44.19122 128.45317 33079 ft 427 kts 130°
2026-05-09 09:37 44.15054 128.51372 33049 ft 427 kts 130°
2026-05-09 09:37 44.11022 128.57365 33059 ft 427 kts 130°
2026-05-09 09:38 44.06997 128.63384 33042 ft 426 kts 130°
2026-05-09 09:38 44.02956 128.69431 33061 ft 427 kts 130°
2026-05-09 09:39 43.98944 128.75429 33067 ft 424 kts 131°
2026-05-09 09:39 43.94929 128.81403 32982 ft 423 kts 131°
2026-05-09 09:40 43.90926 128.87341 32952 ft 423 kts 131°
2026-05-09 09:40 43.86929 128.93233 32951 ft 422 kts 131°
2026-05-09 09:41 43.82910 128.99142 32941 ft 423 kts 130°
2026-05-09 09:41 43.78896 129.05061 32937 ft 424 kts 130°
2026-05-09 09:42 43.74855 129.11009 32938 ft 425 kts 130°
2026-05-09 09:42 43.70844 129.16966 32952 ft 426 kts 130°
2026-05-09 09:43 43.66811 129.22992 32953 ft 427 kts 130°
2026-05-09 09:43 43.62791 129.28986 32950 ft 428 kts 130°
2026-05-09 09:44 43.58752 129.34998 32951 ft 429 kts 130°
2026-05-09 09:44 43.54700 129.41014 32959 ft 429 kts 130°
2026-05-09 09:45 43.50623 129.47057 32961 ft 429 kts 130°
2026-05-09 09:45 43.46583 129.53033 32947 ft 429 kts 130°
2026-05-09 09:46 43.42500 129.59065 32949 ft 431 kts 130°
2026-05-09 09:46 43.38430 129.65060 32957 ft 431 kts 131°
2026-05-09 09:47 43.34373 129.71069 32948 ft 431 kts 128°
2026-05-09 09:47 43.31062 129.77815 32949 ft 427 kts 113°
2026-05-09 09:48 43.29182 129.85422 32956 ft 418 kts 97°
2026-05-09 09:48 43.28651 129.93295 32960 ft 414 kts 88°
2026-05-09 09:49 43.28406 130.01096 32965 ft 413 kts 88°
2026-05-09 09:49 43.28130 130.08939 32966 ft 413 kts 89°
2026-05-09 09:50 43.27830 130.16785 32968 ft 412 kts 89°
2026-05-09 09:50 43.27521 130.24593 32974 ft 412 kts 89°
2026-05-09 09:51 43.27203 130.32430 32960 ft 412 kts 89°
2026-05-09 09:51 43.26881 130.40268 32958 ft 411 kts 89°
2026-05-09 09:52 43.26555 130.48053 32974 ft 412 kts 89°
2026-05-09 09:52 43.26223 130.55830 32972 ft 411 kts 89°
2026-05-09 09:53 43.25884 130.63660 32955 ft 410 kts 89°
2026-05-09 09:53 43.25542 130.71426 32965 ft 410 kts 89°
2026-05-09 09:54 43.25193 130.79225 32955 ft 409 kts 89°
2026-05-09 09:54 43.24843 130.86969 32952 ft 409 kts 89°
2026-05-09 09:55 43.24488 130.94702 32944 ft 407 kts 89°
2026-05-09 09:55 43.24128 131.02416 32931 ft 407 kts 89°
2026-05-09 09:56 43.23761 131.10147 32911 ft 406 kts 89°
2026-05-09 09:56 43.23390 131.17850 32908 ft 407 kts 89°
2026-05-09 09:57 43.22917 131.25552 32910 ft 407 kts 91°
2026-05-09 09:57 43.22348 131.33267 32908 ft 407 kts 91°
2026-05-09 09:58 43.22002 131.40927 32644 ft 398 kts 83°
2026-05-09 09:58 43.22261 131.44606 32284 ft 389 kts 76°
2026-05-09 09:58 43.22833 131.48187 31935 ft 379 kts 69°
2026-05-09 09:58 43.23680 131.51550 31592 ft 371 kts 63°
2026-05-09 09:59 43.24718 131.54741 31247 ft 364 kts 61°
2026-05-09 09:59 43.25767 131.57825 30877 ft 359 kts 61°
2026-05-09 09:59 43.26820 131.60910 30496 ft 354 kts 61°
2026-05-09 09:59 43.27850 131.63945 30125 ft 349 kts 61°
2026-05-09 10:00 43.28859 131.66934 29761 ft 344 kts 62°
2026-05-09 10:00 43.29842 131.69865 29411 ft 339 kts 62°
2026-05-09 10:00 43.30818 131.72781 29062 ft 334 kts 61°
2026-05-09 10:00 43.31779 131.75653 28722 ft 329 kts 61°
2026-05-09 10:01 43.32713 131.78444 28372 ft 325 kts 61°
2026-05-09 10:01 43.33650 131.81244 27975 ft 322 kts 61°
2026-05-09 10:01 43.34582 131.84035 27548 ft 320 kts 61°
2026-05-09 10:01 43.35508 131.86803 27103 ft 318 kts 61°
2026-05-09 10:02 43.36414 131.89520 26674 ft 317 kts 61°
2026-05-09 10:02 43.37331 131.92273 26246 ft 315 kts 61°
2026-05-09 10:02 43.38228 131.94966 25831 ft 313 kts 61°
2026-05-09 10:02 43.39131 131.97685 25395 ft 311 kts 61°
2026-05-09 10:03 43.40017 132.00354 24966 ft 309 kts 60°
2026-05-09 10:03 43.40905 132.03030 24523 ft 307 kts 60°
2026-05-09 10:03 43.41784 132.05681 24084 ft 306 kts 61°
2026-05-09 10:03 43.42670 132.08356 23653 ft 304 kts 60°
2026-05-09 10:04 43.43531 132.10959 23238 ft 303 kts 60°
2026-05-09 10:04 43.44403 132.13597 22811 ft 301 kts 60°
2026-05-09 10:04 43.45264 132.16208 22393 ft 299 kts 60°
2026-05-09 10:04 43.46116 132.18787 21985 ft 298 kts 60°
2026-05-09 10:05 43.46968 132.21373 21579 ft 296 kts 60°
2026-05-09 10:05 43.47819 132.23956 21181 ft 294 kts 60°
2026-05-09 10:05 43.48660 132.26512 20792 ft 293 kts 60°
2026-05-09 10:05 43.49489 132.29034 20407 ft 292 kts 60°
2026-05-09 10:06 43.50325 132.31583 20023 ft 290 kts 59°
2026-05-09 10:06 43.51114 132.34091 19657 ft 290 kts 63°
2026-05-09 10:06 43.51828 132.36749 18780 ft 303 kts 64°
2026-05-09 10:06 43.52537 132.39496 17869 ft 307 kts 64°
2026-05-09 10:07 43.53241 132.42264 16992 ft 309 kts 65°
2026-05-09 10:07 43.53936 132.45018 16143 ft 310 kts 65°
2026-05-09 10:07 43.54640 132.47824 15242 ft 310 kts 65°
2026-05-09 10:07 43.55332 132.50591 14349 ft 309 kts 65°
2026-05-09 10:08 43.56025 132.53383 13437 ft 308 kts 65°
2026-05-09 10:08 43.56706 132.56145 12533 ft 307 kts 65°
2026-05-09 10:08 43.57385 132.58911 11636 ft 305 kts 63°
2026-05-09 10:08 43.58158 132.61552 10759 ft 301 kts 59°
2026-05-09 10:09 43.59001 132.64168 9882 ft 298 kts 57°
2026-05-09 10:09 43.59957 132.66632 9269 ft 284 kts 53°
2026-05-09 10:09 43.60908 132.68884 8955 ft 264 kts 53°
2026-05-09 10:09 43.61793 132.70984 8919 ft 245 kts 52°
2026-05-09 10:10 43.62641 132.73004 8922 ft 245 kts 52°
2026-05-09 10:10 43.63497 132.75046 8918 ft 245 kts 52°
2026-05-09 10:10 43.64354 132.77090 8912 ft 245 kts 52°
2026-05-09 10:10 43.65194 132.79102 8913 ft 245 kts 52°
2026-05-09 10:11 43.66048 132.81152 8911 ft 245 kts 52°
2026-05-09 10:11 43.66882 132.83165 8761 ft 241 kts 52°
2026-05-09 10:11 43.67725 132.85191 8390 ft 242 kts 52°
2026-05-09 10:11 43.68567 132.87198 8063 ft 242 kts 52°
2026-05-09 10:12 43.69403 132.89183 7765 ft 240 kts 52°
2026-05-09 10:12 43.70239 132.91148 7464 ft 238 kts 52°
2026-05-09 10:12 43.71078 132.93100 7162 ft 236 kts 52°
2026-05-09 10:12 43.71914 132.95053 6855 ft 236 kts 55°
2026-05-09 10:13 43.72808 132.96913 6525 ft 227 kts 34°
2026-05-09 10:13 43.74183 132.97691 6219 ft 210 kts 355°
2026-05-09 10:13 43.75541 132.97137 5906 ft 206 kts 329°
2026-05-09 10:13 43.76630 132.95834 5513 ft 211 kts 309°
2026-05-09 10:14 43.77279 132.93996 5138 ft 217 kts 285°
2026-05-09 10:14 43.77294 132.91923 4927 ft 224 kts 260°
2026-05-09 10:14 43.76551 132.89865 4932 ft 256 kts 238°
2026-05-09 10:14 43.75810 132.88535 4925 ft 264 kts 236°
2026-05-09 10:15 43.72078 132.82068 4178 ft 265 kts 235°
2026-05-09 10:15 43.70927 132.80041 4076 ft 270 kts 235°
2026-05-09 10:16 43.69756 132.77985 4691 ft 274 kts 236°
2026-05-09 10:16 43.68611 132.75974 5389 ft 270 kts 236°
2026-05-09 10:16 43.67452 132.73932 5827 ft 270 kts 237°
2026-05-09 10:16 43.66287 132.71875 5997 ft 270 kts 237°
2026-05-09 10:17 43.65144 132.69852 6000 ft 270 kts 237°
2026-05-09 10:17 43.63993 132.67815 6002 ft 270 kts 237°
2026-05-09 10:17 43.62832 132.65762 6006 ft 270 kts 237°
2026-05-09 10:17 43.61679 132.63728 6007 ft 270 kts 237°
2026-05-09 10:18 43.60522 132.61688 6003 ft 270 kts 237°
2026-05-09 10:18 43.59376 132.59672 6004 ft 269 kts 237°
2026-05-09 10:18 43.58220 132.57637 5998 ft 270 kts 237°
2026-05-09 10:18 43.57070 132.55618 5996 ft 262 kts 237°
2026-05-09 10:19 43.55933 132.53700 5999 ft 261 kts 232°
2026-05-09 10:19 43.54695 132.51869 5990 ft 253 kts 236°
2026-05-09 10:19 43.53707 132.49951 5984 ft 238 kts 245°
2026-05-09 10:19 43.52953 132.48012 5870 ft 225 kts 249°
2026-05-09 10:20 43.52255 132.46101 5228 ft 227 kts 248°
2026-05-09 10:20 43.51527 132.44165 4717 ft 223 kts 247°
2026-05-09 10:20 43.50810 132.42339 4335 ft 216 kts 245°
2026-05-09 10:20 43.50092 132.40556 3979 ft 210 kts 245°
2026-05-09 10:21 43.49394 132.38844 3652 ft 203 kts 245°
2026-05-09 10:21 43.48713 132.37189 3434 ft 188 kts 244°
2026-05-09 10:21 43.48116 132.35736 3381 ft 165 kts 245°
2026-05-09 10:21 43.47578 132.34427 3373 ft 152 kts 245°
2026-05-09 10:22 43.47062 132.33150 3398 ft 151 kts 245°
2026-05-09 10:22 43.46559 132.31905 3386 ft 149 kts 245°
2026-05-09 10:22 43.46056 132.30664 3194 ft 150 kts 244°
2026-05-09 10:22 43.45556 132.29434 2836 ft 148 kts 243°
2026-05-09 10:23 43.45058 132.28210 2507 ft 144 kts 243°
2026-05-09 10:23 43.44577 132.27029 2196 ft 139 kts 243°
2026-05-09 10:23 43.44108 132.25876 1873 ft 138 kts 243°
2026-05-09 10:23 43.43645 132.24731 1513 ft 138 kts 242°
2026-05-09 10:24 43.43179 132.23584 1151 ft 135 kts 242°
2026-05-09 10:24 43.42720 132.22450 969 ft 135 kts 242°
2026-05-09 10:24 43.42267 132.21330 786 ft 135 kts 242°
2026-05-09 10:24 43.41810 132.20203 602 ft 134 kts 242°
2026-05-09 10:25 43.41360 132.19090 425 ft 133 kts 242°
2026-05-09 10:25 43.40910 132.17972 249 ft 133 kts 242°
2026-05-09 10:25 43.40466 132.16859 96 ft 132 kts 242°
2026-05-09 10:25 43.40042 132.15778 62 ft 121 kts 243°
2026-05-09 10:26 43.39829 132.15234 57 ft 0 kts 245°